This is the latest recevied weather packets stored in our database for station/object KF6YUA. If no packets are shown the sender has not sent any weather packets the latest 10 day(s).
| Time | Temp. | Humidity | Pressure | Rain* | Wind** | Luminosity | Snow |
|---|---|---|---|---|---|---|---|
| 1777326186 | 17.78° C | 66% | 1019 hPa | 0 mm | - | 573 W/m² | - |
| 1777325884 | 17.22° C | 68% | 1019.2 hPa | 0 mm | - | 586 W/m² | - |
| 1777325581 | 17.22° C | 67% | 1019.3 hPa | 0 mm | - | 561 W/m² | - |
| 1777325279 | 18.33° C | 67% | 1019.3 hPa | 0 mm | - | 574 W/m² | - |
| 1777324976 | 17.78° C | 67% | 1019.2 hPa | 0 mm | - | 661 W/m² | - |
| 1777324672 | 18.33° C | 65% | 1019.1 hPa | 0 mm | - | 673 W/m² | - |
| 1777324371 | 17.22° C | 67% | 1019.3 hPa | 0 mm | - | 672 W/m² | - |
| 1777324068 | 18.33° C | 69% | 1019.1 hPa | 0 mm | - | 681 W/m² | - |
| 1777323765 | 17.78° C | 70% | 1019 hPa | 0 mm | - | 658 W/m² | - |
| 1777323462 | 17.78° C | 67% | 1018.9 hPa | 0 mm | - | 684 W/m² | - |
| 1777323160 | 17.78° C | 68% | 1019.1 hPa | 0 mm | - | 653 W/m² | - |
| 1777322857 | 17.78° C | 68% | 1019.1 hPa | 0 mm | - | 606 W/m² | - |
| 1777322556 | 17.78° C | 67% | 1019.2 hPa | 0 mm | - | 579 W/m² | - |
| 1777322252 | 17.22° C | 69% | 1019.1 hPa | 0 mm | - | 538 W/m² | - |
| 1777321949 | 17.78° C | 69% | 1019.1 hPa | 0 mm | - | 651 W/m² | - |
| 1777321646 | 17.22° C | 67% | 1019.2 hPa | 0 mm | - | 668 W/m² | - |
| 1777321342 | 18.33° C | 65% | 1019.1 hPa | 0 mm | - | 580 W/m² | - |
| 1777321039 | 17.78° C | 69% | 1019.3 hPa | 0 mm | - | 701 W/m² | - |
| 1777320738 | 18.33° C | 67% | 1019.2 hPa | 0 mm | - | 546 W/m² | - |
| 1777320434 | 18.33° C | 66% | 1019.1 hPa | 0 mm | - | 511 W/m² | - |
| 1777320131 | 17.78° C | 65% | 1019.2 hPa | 0 mm | - | 50 W/m² | - |
| 1777319829 | 17.22° C | 68% | 1019.1 hPa | 0 mm | - | 483 W/m² | - |
| 1777319525 | 17.22° C | 68% | 1019.3 hPa | 0 mm | - | 476 W/m² | - |
| 1777319222 | 17.22° C | 68% | 1019.2 hPa | 0 mm | - | 218 W/m² | - |
| 1777318919 | 17.22° C | 65% | 1019.3 hPa | 0 mm | - | 734 W/m² | - |
* Rain latest hour (hover to see other rain measurements)
** Current wind speed in m/s (hover to see current wind gust speed)